INMARSAT 5-F2

Last updated on Sat Aug 15 2026 00:02:59 GMT+0000 (Coordinated Universal Time)

1 40384U 15005A 26226.48580905 -.00000301 00000+0 00000+0 0 9990 2 40384 0.0166 90.2064 0000350 135.8108 216.7673 1.00269634 41579
UTC large
Height (km)
Speed (km/s)
/
Latitude / Longitude
Inclination (degrees)
Orbital Period (minutes)
Azimuth
Elevation
Range (km)
Doppler Factor

Next 0 passes for location: London (51.5072 / 0.1276)

No passes found over London.
INMARSAT 5-F2